User: anonymous   Login
Location: Nairn
(57.5833°N, 3.8667°W)
Time: 20:37:03
(UTC+00:00)
Language:

USA 238 DEB - Orbit

View from above orbital plane
View from above orbital plane
View from above satellite
View from above satellite

Ground track
Ground track

The orbit data is extracted from the following two-line orbital elements,

1 38773U 12048P   20302.17444229 0.00000000  00000-0  00000-0 0    06
2 38773  63.4289  53.3605 0135890   0.6627 359.3373 13.40811206    00
Epoch (UTC): 28 October 2020 04:11:11
Eccentricity: 0.0135890
inclination: 63.4289°
perigee height: 1004 km
apogee height: 1208 km
right ascension of ascending node: 53.3605°
argument of perigee: 0.6627°
revolutions per day: 13.40811206
mean anomaly at epoch: 359.3373°
orbit number at epoch: 0

The dashed part of the orbit path shows where the satellite is in the earth's shadow,  

DLR